Location: ???????
(55.4362°N, 38.1183°E)
Time: 16:34:05
(UTC+00:00)

Cosmos 2237 Rocket - Pass Details

Date: 17 June 2021
Orbit: 835 x 850 km, 71.0° (Epoch: 30 July)

Event Time Altitude Azimuth Distance (km) Brightness Sun altitude
Exits shadow 19:45:02 10° 147° (SSE) 2,478 4.0 -8.1°
Reaches altitude 10° 19:45:09 10° 146° (SE) 2,445 4.0 -8.1°
Maximum altitude 19:49:06 20° 101° (E) 1,844 3.7 -8.4°
Drops below altitude 10° 19:53:03 10° 56° (NE) 2,457 4.8 -8.6°
Sets 19:56:05 0° 40° (NE) 3,397 5.8 -8.7°
